User: anonymous   Login
Location: Caltech
(34.1382°N, 118.1253°W)
Time: 18:44:02
(UTC-07:00)
Language:

BREEZE M DEB (TANK) - Orbit

View from above orbital plane
View from above orbital plane
View from above satellite
View from above satellite

Ground track
Ground track

The orbit data is extracted from the following two-line orbital elements,

1 33437U 08057B   16151.56227565  .00001308  00000-0  39174-3 0  9991
2 33437  49.5545 213.3146 4990075 157.4979 235.6843  5.59505082152435
Epoch (UTC): 30 May 2016 13:29:40
Eccentricity: 0.4990075
inclination: 49.5545°
perigee height: 336 km
apogee height: 13713 km
right ascension of ascending node: 213.3146°
argument of perigee: 157.4979°
revolutions per day: 5.59505082
mean anomaly at epoch: 235.6843°
orbit number at epoch: 15243

The dashed part of the orbit path shows where the satellite is in the earth's shadow,  

DLR